Djupivogur Airport


Codes: BIDV/DJU
Name: Djupivogur Airport
City: Djupivogur
Country: Iceland
Elevation: 9 ft.

Photos at Djupivogur Airport


   Photos courtesy of SpottingLog. You can add your own sightings and photos by signing up for a free trial today.



No photos found.

Weather at Djupivogur Airport


Time (UTC)DescriptionTempratureWindCloud coverageVisibilityPressureHumidity
23-May-2024 21:00Scattered Clouds9°C13 mph, SW49%10000m1018hPa81%
24-May-2024 00:00Broken Clouds8°C13 mph, SW73%10000m1019hPa86%
24-May-2024 03:00Overcast Clouds8°C11 mph, S100%10000m1019hPa93%
24-May-2024 06:00Overcast Clouds8°C13 mph, S100%10000m1019hPa95%
24-May-2024 09:00Overcast Clouds8°C13 mph, S100%10000m1020hPa90%
24-May-2024 12:00Overcast Clouds9°C13 mph, S100%10000m1020hPa82%
24-May-2024 15:00Overcast Clouds9°C11 mph, S100%10000m1020hPa84%
24-May-2024 18:00Overcast Clouds9°C9 mph, S100%10000m1019hPa84%
24-May-2024 21:00Overcast Clouds8°C7 mph, SE98%10000m1019hPa87%
25-May-2024 00:00Overcast Clouds7°C2 mph, E91%10000m1018hPa83%
25-May-2024 03:00Few Clouds7°C2 mph, E19%10000m1016hPa84%
25-May-2024 06:00Light Rain8°C2 mph, E48%10000m1015hPa95%
25-May-2024 09:00Light Rain8°C4 mph, NE98%10000m1015hPa96%
25-May-2024 12:00Light Rain9°C7 mph, N99%0m1014hPa99%
25-May-2024 15:00Light Rain9°C7 mph, N100%0m1013hPa98%
25-May-2024 18:00Light Rain9°C11 mph, S100%1208m1014hPa99%
25-May-2024 21:00Broken Clouds9°C7 mph, S75%10000m1015hPa94%
26-May-2024 00:00Overcast Clouds9°C7 mph, S88%10000m1015hPa90%
26-May-2024 03:00Broken Clouds8°C4 mph, S67%10000m1016hPa93%
26-May-2024 06:00Broken Clouds8°C2 mph, SE79%10000m1016hPa95%
26-May-2024 09:00Overcast Clouds9°C2 mph, SE100%6509m1016hPa98%
26-May-2024 12:00Overcast Clouds11°C2 mph, SE92%10000m1016hPa84%
26-May-2024 15:00Scattered Clouds11°C4 mph, SE49%4052m1015hPa85%
26-May-2024 18:00Broken Clouds11°C2 mph, SE74%4386m1014hPa78%
26-May-2024 21:00Overcast Clouds10°C2 mph, N100%10000m1014hPa85%
27-May-2024 00:00Overcast Clouds10°C2 mph, NE100%10000m1013hPa84%
27-May-2024 03:00Overcast Clouds10°C4 mph, NE100%10000m1012hPa88%
27-May-2024 06:00Light Rain10°C4 mph, NE100%10000m1011hPa89%
27-May-2024 09:00Overcast Clouds10°C7 mph, NE98%10000m1011hPa84%
27-May-2024 12:00Light Rain9°C4 mph, NE99%4130m1011hPa94%
27-May-2024 15:00Light Rain10°C4 mph, NE100%10000m1010hPa90%
27-May-2024 18:00Overcast Clouds10°C4 mph, E100%4071m1009hPa89%
27-May-2024 21:00Overcast Clouds9°C4 mph, NE100%10000m1009hPa93%
28-May-2024 00:00Overcast Clouds9°C4 mph, NE100%10000m1008hPa94%
28-May-2024 03:00Overcast Clouds9°C4 mph, NE100%667m1008hPa97%
28-May-2024 06:00Overcast Clouds9°C7 mph, NE100%10000m1007hPa96%
28-May-2024 09:00Overcast Clouds10°C7 mph, NE93%10000m1007hPa88%
28-May-2024 12:00Light Rain9°C7 mph, NE97%10000m1008hPa93%
28-May-2024 15:00Light Rain11°C7 mph, NE99%10000m1008hPa85%
28-May-2024 18:00Light Rain9°C4 mph, N95%0m1008hPa96%